Wind_Speed
24 22 20 18 17 15 13 11 10 10 9 6 2 1 2 3 5 7 6 5 4 3 2 2 3 4 4 4 4 5 5 5 5 6 6 6 6 7 7 8 8 9
23 21 19 17 16 15 13 12 11 10 8 5 2 2 1 6 8 9 7 5 3 2 3 3 3 4 3 3 4 5 5 4 5 6 5 5 7 7 8 9 9 9
21 19 18 17 16 15 14 13 12 11 8 5 3 2 6 9 10 9 7 4 3 3 4 3 4 5 5 4 4 5 4 4 5 6 5 4 6 7 8 9 9 9
20 19 18 17 17 16 15 14 13 11 8 6 5 7 10 10 9 8 6 5 4 4 3 3 5 7 6 5 4 3 4 4 6 6 4 3 5 7 8 8 8 9
20 19 19 18 17 16 16 16 14 10 8 8 10 12 11 9 8 7 6 5 5 5 5 5 7 7 5 4 4 3 5 6 8 7 4 3 5 6 7 8 8 9
20 20 19 19 18 18 17 16 13 9 10 12 14 13 11 10 8 7 6 4 5 7 8 8 7 6 4 4 4 4 6 8 8 7 5 5 5 6 7 8 8 9
20 20 21 20 19 19 18 15 12 12 15 16 15 13 12 11 9 8 7 4 5 7 7 7 7 5 4 4 4 5 7 8 8 6 6 7 6 6 7 8 9 10
20 21 21 20 20 19 16 13 15 18 19 17 16 14 13 12 10 10 8 4 4 5 6 6 5 4 3 3 4 5 6 7 7 6 7 8 7 8 9 9 10 11
21 21 20 19 19 17 15 17 20 21 19 18 17 15 14 12 10 9 7 5 4 5 5 5 4 3 2 2 3 4 5 5 7 7 8 8 9 10 11 10 11 13
22 21 20 19 18 16 19 22 23 21 20 18 17 16 15 13 11 9 7 6 5 5 5 4 3 1 1 2 3 3 4 5 7 8 9 9 10 11 12 12 13 15
22 20 20 19 17 19 23 25 23 22 20 18 17 17 16 14 12 9 8 7 7 6 4 3 2 1 2 3 3 3 3 5 6 8 9 9 10 11 13 14 15 16
21 21 20 17 18 24 26 25 24 23 21 19 18 17 16 14 12 10 9 8 7 6 4 3 3 2 3 5 5 4 3 3 5 7 8 8 9 11 13 15 17 17
21 21 20 16 21 27 27 25 25 22 21 20 19 17 16 14 12 11 10 8 8 7 6 6 6 5 5 6 5 4 2 3 5 7 9 9 9 11 14 16 17 17
22 21 18 18 25 29 27 25 24 22 21 20 18 17 15 14 13 12 11 10 9 8 8 8 8 6 6 6 5 3 1 4 6 8 10 10 10 11 14 15 16 16
22 20 18 22 27 29 28 25 24 22 22 20 18 17 16 14 13 12 11 11 10 9 10 9 8 7 5 4 3 1 2 4 7 9 10 10 10 11 13 15 14 14
21 19 20 24 26 27 27 25 23 22 21 19 18 17 16 14 13 13 12 11 10 10 10 9 8 6 6 5 4 3 4 5 8 10 11 11 11 12 14 14 13 13
20 19 23 26 25 26 26 24 23 22 20 19 17 16 15 15 14 14 13 12 11 11 10 9 8 8 7 6 6 6 6 7 9 10 11 12 11 12 13 13 12 11
20 21 27 28 26 26 25 24 22 21 19 18 16 15 16 15 15 14 13 12 11 10 10 9 9 9 8 7 7 7 7 8 9 11 11 12 12 12 12 12 11 10
20 25 31 28 26 25 24 23 22 20 19 17 16 16 16 16 15 15 14 13 11 10 10 10 10 9 9 8 9 9 9 9 10 11 11 12 12 12 11 10 9 8
22 30 32 27 25 24 23 23 22 20 18 16 16 17 18 17 16 15 14 13 12 11 11 11 10 11 10 10 10 10 9 9 10 11 11 12 12 11 11 10 9 8
24 31 31 27 26 25 24 23 22 21 19 16 16 18 18 18 17 16 15 14 12 11 11 11 11 12 11 11 10 10 10 10 10 11 11 12 12 11 11 11 10 9
26 33 31 29 28 27 26 25 24 22 20 17 17 18 19 19 18 16 15 14 13 12 11 12 13 13 12 11 10 10 10 10 10 11 11 11 11 11 10 11 11 10
31 35 32 30 30 28 28 27 25 23 21 19 18 21 21 20 18 17 15 14 14 13 12 13 15 15 13 12 11 10 9 9 10 10 11 11 11 11 10 10 11 10
34 34 32 32 31 29 29 27 25 24 21 19 20 22 22 20 18 17 17 15 14 14 13 14 16 16 14 12 11 10 9 9 10 10 11 11 11 11 10 9 10 10
34 32 31 32 30 29 28 27 25 24 21 19 20 21 21 20 18 17 18 17 16 15 15 15 16 16 14 11 11 10 9 9 9 9 10 11 11 11 10 9 9 9
34 31 32 32 30 29 28 26 25 23 21 20 21 21 20 18 17 17 18 18 18 16 16 15 15 14 12 9 8 8 9 9 9 8 10 11 11 11 11 10 10 9
Wind_Direction
196 200 201 202 205 208 219 231 237 245 247 226 199 12 50 108 135 141 140 147 163 167 133 87 74 64 49 42 23 20 34 36 34 35 27 22 23 21 22 25 25 22
196 202 204 206 208 211 219 228 235 246 245 226 245 345 124 149 145 139 137 144 151 125 99 81 61 62 63 59 47 45 53 51 41 33 20 19 22 20 26 31 33 32
199 203 204 208 214 217 220 224 233 243 240 230 255 240 167 154 145 141 137 123 96 80 82 66 59 76 86 80 68 61 60 49 35 25 10 19 28 26 32 35 35 35
201 203 206 213 218 220 223 226 230 234 232 230 219 185 162 152 148 143 128 96 65 65 80 81 83 92 94 84 73 59 46 37 34 27 14 33 41 34 38 39 36 37
204 207 211 217 218 221 225 225 226 227 223 211 190 172 155 146 144 132 114 87 73 89 109 112 103 100 96 80 68 48 40 40 36 31 30 56 52 40 42 39 36 36
208 212 215 219 220 222 223 220 221 218 202 189 177 162 146 144 143 132 127 117 110 120 128 123 112 103 91 68 54 39 37 40 40 39 49 66 60 48 45 41 37 39
212 215 218 220 221 222 221 217 208 192 183 177 165 153 149 154 154 154 162 157 131 131 130 125 118 106 83 51 35 26 28 37 46 55 71 75 68 59 55 51 49 50
215 218 220 222 223 222 217 200 183 176 175 170 158 155 161 165 167 175 182 176 144 133 123 118 114 103 79 32 7 5 14 34 55 73 84 83 76 70 68 66 64 62
217 220 222 222 220 214 194 175 171 172 172 167 160 161 169 173 182 190 191 195 183 149 127 117 107 92 55 341 329 337 357 31 62 80 86 83 78 76 78 77 74 70
218 220 220 218 208 190 173 167 169 173 172 168 165 169 176 183 191 197 204 216 209 173 144 133 119 97 317 289 289 307 342 23 56 73 78 77 78 81 83 80 76 75
219 220 219 214 192 170 166 167 172 176 172 168 171 177 183 189 194 200 209 213 205 189 175 169 163 178 258 248 247 275 323 8 45 67 73 74 79 85 88 84 79 78
220 219 219 208 175 163 166 170 176 178 173 172 179 185 188 194 200 201 197 196 201 203 208 216 219 229 243 237 234 249 292 4 46 67 74 77 83 90 93 89 82 80
220 218 217 197 167 165 169 174 178 178 176 179 184 190 193 199 206 202 193 195 207 214 219 227 232 238 243 238 235 250 296 37 60 70 77 82 89 95 96 92 86 82
218 216 210 180 163 166 172 177 180 180 181 184 186 192 198 204 209 207 201 201 207 215 220 223 228 236 239 235 239 261 351 56 70 75 81 88 98 102 99 93 89 87
213 211 195 169 164 168 174 179 183 183 186 189 190 195 202 206 207 207 204 203 203 208 213 217 223 225 212 208 221 209 88 86 87 86 87 95 103 105 101 95 93 92
206 198 176 165 165 171 176 182 186 188 191 194 196 201 206 205 201 200 201 202 202 202 207 211 210 197 175 166 163 142 125 111 103 100 98 100 104 105 104 100 98 98
199 185 166 162 166 172 179 185 189 191 194 196 198 201 202 198 195 196 196 197 196 196 199 199 187 172 160 155 151 144 136 125 116 111 106 103 102 104 109 110 109 109
197 176 160 162 170 176 182 187 190 194 195 195 196 195 192 191 192 194 191 189 190 191 190 186 177 165 156 154 148 139 137 133 124 117 111 107 104 104 111 119 121 119
192 167 160 167 177 182 187 191 194 198 198 199 199 194 191 191 190 188 186 184 185 186 185 180 171 158 150 149 144 136 137 136 128 122 118 113 109 107 110 119 125 127
181 163 164 173 181 186 192 195 199 202 203 204 201 193 191 189 184 182 181 182 184 184 183 175 163 151 145 145 142 137 140 139 132 129 126 120 117 115 113 113 115 119
176 167 170 176 181 188 194 198 203 207 207 206 198 191 189 185 181 181 181 180 182 183 179 170 158 148 143 143 142 141 144 143 138 135 131 126 124 122 118 111 104 101
177 172 175 179 184 191 196 200 206 210 210 208 198 188 185 181 179 181 182 179 179 181 178 166 156 149 144 144 146 147 148 146 143 140 135 130 127 123 116 108 100 95
175 176 179 183 189 194 199 203 207 210 212 211 200 187 182 181 181 180 180 180 177 176 176 167 157 149 146 146 148 148 151 150 146 144 139 132 127 120 112 106 102 98
175 179 183 188 192 197 201 204 207 211 214 211 198 188 182 182 183 179 177 178 176 173 174 170 159 150 147 150 150 150 154 154 151 148 141 133 126 119 114 109 106 104
179 184 189 192 195 199 203 206 208 212 214 206 193 188 185 184 184 183 178 174 173 173 173 171 163 154 152 157 157 154 155 156 156 154 144 133 127 122 117 112 109 107
184 189 194 196 198 201 206 210 211 212 210 201 190 186 187 185 183 185 182 175 173 175 175 173 169 161 160 167 168 160 157 157 158 158 147 136 129 124 118 114 110 106
Height
1540 1541 1542 1542 1542 1542 1542 1542 1542 1542 1541 1542 1542 1543 1543 1544 1544 1544 1544 1544 1544 1544 1545 1544 1544 1543 1543 1543 1542 1541 1541 1539 1538 1538 1537 1537 1536 1535 1535 1533 1532 1531
1540 1541 1541 1541 1540 1541 1541 1541 1541 1541 1541 1542 1543 1543 1544 1544 1544 1545 1545 1544 1545 1545 1545 1545 1544 1544 1543 1543 1542 1541 1540 1539 1539 1538 1538 1537 1536 1536 1535 1534 1532 1531
1539 1539 1540 1540 1540 1540 1540 1540 1540 1541 1541 1542 1543 1543 1544 1544 1544 1545 1545 1545 1545 1545 1545 1545 1544 1544 1543 1542 1542 1541 1540 1540 1539 1538 1538 1537 1537 1536 1535 1534 1533 1532
1538 1538 1538 1539 1539 1538 1539 1539 1539 1540 1541 1542 1543 1543 1544 1544 1544 1544 1545 1545 1545 1545 1545 1545 1545 1544 1543 1542 1542 1541 1540 1540 1539 1539 1539 1538 1537 1536 1535 1534 1533 1532
1536 1537 1537 1537 1537 1537 1538 1538 1539 1540 1541 1542 1542 1543 1544 1544 1544 1544 1545 1545 1545 1545 1545 1545 1545 1544 1543 1542 1542 1541 1541 1540 1540 1539 1539 1538 1537 1536 1535 1534 1533 1532
1535 1535 1535 1536 1536 1536 1537 1537 1539 1540 1540 1541 1542 1543 1543 1543 1544 1544 1545 1545 1545 1545 1545 1545 1544 1543 1542 1542 1542 1541 1541 1541 1540 1540 1539 1538 1537 1536 1535 1534 1533 1533
1533 1534 1534 1534 1535 1535 1536 1537 1539 1539 1540 1541 1542 1542 1542 1542 1543 1544 1545 1545 1545 1545 1545 1544 1544 1543 1543 1543 1542 1541 1541 1542 1541 1541 1540 1538 1537 1536 1535 1534 1534 1533
1532 1533 1533 1533 1533 1534 1536 1537 1538 1539 1540 1540 1541 1541 1541 1542 1543 1544 1545 1546 1546 1546 1545 1544 1544 1543 1543 1543 1542 1542 1542 1542 1542 1542 1540 1539 1537 1536 1535 1535 1535 1534
1531 1531 1532 1532 1532 1534 1535 1537 1537 1538 1538 1539 1540 1540 1541 1542 1544 1545 1545 1546 1546 1546 1545 1545 1544 1544 1544 1544 1543 1543 1543 1543 1543 1542 1541 1539 1538 1537 1537 1536 1536 1536
1529 1530 1530 1530 1532 1533 1535 1536 1536 1536 1537 1538 1540 1541 1542 1543 1544 1545 1546 1546 1546 1546 1545 1545 1545 1545 1544 1544 1544 1544 1544 1543 1543 1542 1541 1540 1538 1538 1538 1537 1537 1537
1528 1528 1528 1529 1531 1533 1534 1535 1535 1535 1536 1538 1540 1541 1542 1543 1545 1545 1546 1546 1546 1545 1545 1545 1545 1545 1545 1545 1545 1544 1544 1544 1543 1542 1541 1540 1539 1539 1539 1538 1538 1538
1526 1527 1527 1528 1531 1532 1533 1533 1533 1534 1536 1538 1539 1541 1542 1544 1545 1546 1546 1546 1545 1545 1545 1545 1545 1546 1546 1545 1545 1545 1545 1544 1543 1542 1542 1541 1541 1540 1540 1539 1539 1540
1525 1525 1526 1528 1530 1531 1532 1532 1533 1534 1536 1538 1539 1541 1542 1543 1544 1545 1546 1545 1545 1545 1545 1546 1546 1546 1546 1546 1546 1546 1546 1545 1544 1543 1543 1542 1542 1541 1541 1541 1541 1541
1524 1524 1525 1528 1530 1530 1531 1531 1532 1534 1536 1537 1539 1540 1542 1543 1544 1544 1545 1545 1545 1545 1546 1546 1546 1546 1546 1546 1546 1546 1546 1545 1544 1544 1544 1543 1543 1542 1542 1542 1542 1543
1522 1523 1525 1528 1529 1530 1530 1531 1532 1534 1535 1537 1538 1540 1541 1542 1543 1543 1544 1544 1545 1545 1546 1546 1547 1547 1547 1547 1547 1547 1546 1546 1545 1545 1545 1544 1544 1543 1543 1543 1544 1544
1522 1523 1525 1527 1529 1530 1530 1531 1532 1534 1535 1537 1538 1539 1540 1541 1542 1542 1543 1544 1545 1545 1546 1547 1547 1547 1547 1547 1547 1547 1546 1546 1546 1546 1545 1545 1545 1544 1544 1544 1545 1545
1521 1523 1525 1527 1528 1529 1530 1531 1532 1533 1535 1536 1537 1538 1539 1540 1541 1542 1543 1544 1544 1545 1546 1547 1547 1548 1547 1547 1547 1547 1547 1547 1546 1546 1546 1546 1545 1545 1545 1546 1546 1546
1521 1523 1526 1527 1529 1530 1530 1531 1532 1533 1535 1536 1537 1538 1539 1540 1541 1542 1543 1544 1544 1545 1546 1547 1547 1547 1547 1548 1547 1547 1547 1547 1547 1547 1546 1546 1546 1547 1547 1547 1547 1546
1521 1523 1525 1527 1528 1530 1531 1532 1533 1534 1535 1536 1537 1538 1539 1540 1541 1542 1543 1543 1544 1545 1546 1547 1547 1547 1547 1548 1548 1548 1548 1548 1548 1548 1547 1547 1548 1548 1548 1548 1547 1547
1520 1523 1525 1527 1528 1529 1531 1532 1533 1534 1535 1536 1537 1538 1539 1540 1541 1542 1543 1543 1544 1545 1546 1546 1547 1547 1548 1548 1548 1549 1549 1549 1549 1549 1549 1549 1549 1549 1549 1549 1548 1547
1520 1523 1524 1525 1527 1529 1530 1532 1533 1534 1535 1536 1538 1539 1540 1540 1541 1542 1543 1543 1544 1545 1546 1546 1547 1547 1548 1549 1549 1550 1550 1550 1550 1550 1550 1550 1550 1550 1550 1549 1549 1548
1520 1522 1523 1524 1526 1528 1530 1531 1532 1533 1535 1536 1537 1538 1539 1540 1541 1542 1543 1543 1544 1545 1546 1547 1547 1548 1549 1549 1550 1551 1551 1551 1551 1551 1551 1551 1551 1551 1550 1550 1549 1548
1520 1521 1523 1524 1525 1527 1529 1531 1532 1533 1535 1536 1537 1538 1539 1540 1541 1542 1543 1544 1544 1545 1546 1547 1548 1548 1549 1550 1551 1551 1552 1552 1552 1552 1552 1551 1551 1551 1551 1550 1550 1549
1520 1521 1522 1523 1525 1527 1528 1530 1532 1533 1534 1536 1537 1538 1539 1540 1541 1541 1543 1544 1544 1545 1546 1547 1548 1549 1550 1551 1551 1552 1552 1552 1553 1553 1552 1552 1552 1551 1551 1551 1550 1550
1520 1521 1522 1524 1525 1527 1528 1530 1531 1533 1534 1536 1537 1538 1539 1539 1540 1541 1542 1543 1544 1545 1546 1548 1549 1549 1550 1551 1552 1553 1553 1553 1554 1553 1553 1553 1552 1552 1552 1551 1551 1551
1519 1521 1522 1524 1525 1527 1529 1530 1531 1532 1534 1535 1536 1538 1539 1539 1540 1541 1542 1543 1544 1545 1546 1548 1549 1550 1551 1551 1552 1553 1554 1554 1554 1554 1554 1553 1553 1552 1552 1552 1552 1551